Skip Page Navigation
NASA JPL Caltech
NASA Logo - Jet Propulsion Laboratory + View the NASA Portal
+ Near-Earth Object (NEO) Program
Search JPL
JPL Home Earth Solar System Stars & Galaxies Technology
JPL Solar System Dynamics
BODIES ORBITS EPHEMERIDES TOOLS PHYSICAL DATA DISCOVERY FAQ SITE MAP
JPL Small-Body Database Browser
Search: [ help ]  
26839 (1991 RC10)
Classification: Main-belt Asteroid          SPK-ID: 2026839
Ephemeris | Orbit Diagram | Orbital Elements | Physical Parameters | Discovery Circumstances ]

[ show orbit diagram ]
Orbital Elements at Epoch 2456400.5 (2013-Apr-18.0) TDB
Reference: MPO247581 (heliocentric ecliptic J2000)
 Element Value Uncertainty (1-sigma)   Units 
e 0.0925711 n/a  
a 3.0518591 n/a AU
q 2.7693451 n/a AU
i 10.19911 n/a deg
node 350.06541 n/a deg
peri 36.55187 n/a deg
M 355.54316 n/a deg
tp 2456424.6084724
(2013-May-12.10847240)
n/a JED
period 1947.3550942
5.33
n/a
n/a
d
yr
n 0.18486613 n/a deg/d
Q 3.3343731 n/a AU
  Orbit Determination Parameters
   # obs. used (total)      662  
   first obs. used      1991-??-??  
   last obs. used      2012-12-13  
   # oppositions      14  
   planetary ephem.      DE403  
   condition code      0  
   fit RMS      0.58  
   data source      MPC:mpn  
   producer      MPCLINUX  

Additional Information
 T_jup = 3.206 

Ephemeris | Orbit Diagram | Orbital Elements | Physical Parameters | Discovery Circumstances ]

Physical Parameter Table
Parameter Symbol Value Units Sigma Reference Notes
absolute magnitude H 13.0 mag n/a PDS3 (MPO 14473)  

26839 (1991 RC10)          Discovered 1991-Sep-12 by Holt, H. E. at Palomar (675)
Reference: 20010804/Numbers.arcLast Updated: 2004-04-19

Alternate Designations
 1991 RC10 = 1999 CF99 
Ephemeris | Orbit Diagram | Orbital Elements | Physical Parameters | Discovery Circumstances ]
ABOUT SSD CREDITS/AWARDS PRIVACY/COPYRIGHT GLOSSARY LINKS
FirstGov 2013-Jun-19 18:59 UT
(server date/time)  
NASA Home Page
Site Manager:   Donald K. Yeomans
Webmaster  Alan B. Chamberlin